CW7944 Weather Reports


time (UTC)temp
F
wind
direction
speed
knots
gust
knots
rain 1hr
in
rain 24hr
in
rain mn
in
humidity
%
barometer
mb
20230325074515 31 310 1.7 0.0 0.00 0.00 0.00 48 1002.1
20230325073016 31 328 0.9 0.0 0.00 0.00 0.00 53 1002.1
20230325071509 30 31 0.9 0.0 0.00 0.00 0.00 57 1001.9
20230325070008 29 320 0.9 0.0 0.00 0.00 0.00 88 1002.7
20230325064506 29 105 0.0 0.0 0.00 0.00 0.00 89 1003.1
20230325063059 30 303 0.0 0.0 0.00 0.00 0.00 88 1003.3
20230325061602 30 72 0.0 0.0 0.00 0.00 0.00 83 1003.3
20230325060105 30 332 0.0 0.0 0.00 0.00 0.00 88 1003.2
20230325054551 33 13 0.0 0.0 0.00 0.00 0.00 80 1003.1
20230325053044 36 63 0.0 0.0 0.00 0.00 0.00 67 1001.9
20230325051542 36 35 0.0 0.0 0.00 0.00 0.00 59 1001.8
20230325050033 36 137 0.0 0.0 0.00 0.00 0.00 59 1002.2
20230325044530 37 144 0.0 0.0 0.00 0.00 0.00 57 1002.2
20230325043024 37 275 0.0 0.0 0.00 0.00 0.00 56 1002.2
20230325041538 37 332 0.0 0.0 0.00 0.00 0.00 55 1002.2
20230325040015 38 95 0.0 0.0 0.00 0.00 0.00 53 1003.0
20230325034517 39 105 0.0 0.0 0.00 0.00 0.00 45 1002.6
20230325033008 40 150 0.0 0.0 0.00 0.00 0.00 41 1002.0
20230325031509 41 100 0.0 0.0 0.00 0.00 0.00 37 1001.9
20230325030009 41 111 0.0 0.0 0.00 0.00 0.00 37 1002.1
20230325024523 40 10 0.0 0.0 0.00 0.00 0.00 37 1002.3
20230325023012 40 178 0.0 0.0 0.00 0.00 0.00 35 1001.9
20230325021506 40 178 0.0 0.0 0.00 0.00 0.00 34 1002.3
20230325020010 40 178 0.0 0.0 0.00 0.00 0.00 34 1002.7
20230325014509 41 178 0.0 0.0 0.00 0.00 0.00 34 1002.6
20230325013005 42 178 0.0 0.0 0.00 0.00 0.00 33 1002.1
20230325011504 42 129 0.0 0.0 0.00 0.00 0.00 32 1002.1
20230325010004 43 100 0.0 0.0 0.00 0.00 0.00 31 1003.0
20230325004506 44 100 0.0 0.0 0.00 0.00 0.00 29 1002.5
20230325003002 45 77 0.9 0.0 0.00 0.00 0.00 30 1002.4
20230325001503 46 86 0.0 0.0 0.00 0.00 0.00 29 1002.6
20230325000002 46 112 0.9 0.0 0.00 0.00 0.00 29 1002.6
20230324234504 47 82 0.0 0.0 0.00 0.00 0.00 28 1002.4
20230324233001 47 98 0.0 0.0 0.00 0.00 0.00 28 1002.3
20230324231615 47 85 0.9 0.0 0.00 0.00 0.00 29 1002.1
20230324230101 47 46 0.9 0.0 0.00 0.00 0.00 26 1001.7
20230324224603 48 278 2.6 0.0 0.00 0.00 0.00 26 1001.2
20230324223102 52 355 0.0 0.0 0.00 0.00 0.00 14 1000.5
20230324221600 53 291 0.0 0.0 0.00 0.00 0.00 15 1000.4
20230324220101 53 268 0.0 0.0 0.00 0.00 0.00 15 999.7
20230324214607 53 236 0.9 0.0 0.00 0.00 0.00 16 1000.2
20230324213056 53 249 0.0 0.0 0.00 0.00 0.00 15 1000.3
20230324211557 52 254 0.9 0.0 0.00 0.00 0.00 16 1000.4
20230324210055 52 55 0.0 0.0 0.00 0.00 0.00 17 1000.9
20230324204556 52 47 0.9 0.0 0.00 0.00 0.00 18 1001.1
20230324203100 52 344 0.9 0.0 0.00 0.00 0.00 18 1001.3
20230324201546 52 350 0.9 0.0 0.00 0.00 0.00 20 1001.6
20230324200047 50 337 0.0 0.0 0.00 0.00 0.00 24 1002.6
20230324194545 48 348 0.9 0.0 0.00 0.00 0.00 24 1003.2
20230324193043 50 337 0.9 0.0 0.00 0.00 0.00 23 1002.8
20230324191544 49 296 1.7 0.0 0.00 0.00 0.00 24 1003.7
20230324190100 48 242 0.0 0.0 0.00 0.00 0.00 24 1004.6
20230324184547 47 69 0.0 0.0 0.00 0.00 0.00 28 1004.9
20230324183047 46 329 0.0 0.0 0.00 0.00 0.00 27 1005.0
20230324181539 47 179 0.0 0.0 0.00 0.00 0.00 27 1005.3
20230324180035 48 87 0.9 0.0 0.00 0.00 0.00 28 1005.4
20230324174545 47 344 1.7 0.0 0.00 0.00 0.00 28 1005.8
20230324173033 47 59 0.9 0.0 0.00 0.00 0.00 29 1005.8
20230324171532 47 84 0.9 0.0 0.00 0.00 0.00 29 1006.5
20230324170045 46 36 0.9 0.0 0.00 0.00 0.00 30 1006.1
20230324164526 45 74 0.9 0.0 0.00 0.00 0.00 29 1006.7
20230324163035 44 111 0.9 0.0 0.00 0.00 0.00 31 1006.9
20230324161520 43 115 0.0 0.0 0.00 0.00 0.00 33 1007.6
20230324160017 41 83 0.9 0.0 0.00 0.00 0.00 34 1007.2
20230324154525 40 90 0.0 0.0 0.00 0.00 0.00 35 1007.6
20230324153011 40 102 0.0 0.0 0.00 0.00 0.00 35 1007.9
20230324151509 39 109 0.0 0.0 0.00 0.00 0.00 41 1008.3
20230324150008 39 90 0.0 0.0 0.00 0.00 0.00 41 1007.6
20230324144510 38 155 0.0 0.0 0.00 0.00 0.00 37 1008.1
20230324143002 37 301 0.0 0.0 0.00 0.00 0.00 37 1008.2
20230324141605 36 26 0.0 0.0 0.00 0.00 0.00 39 1008.2
20230324140106 35 30 0.0 0.0 0.00 0.00 0.00 40 1008.2
20230324134553 35 46 0.0 0.0 0.00 0.00 0.00 43 1008.7
20230324133053 34 311 0.9 0.0 0.00 0.00 0.00 50 1009.1
20230324131553 31 350 0.0 0.0 0.00 0.00 0.00 49 1009.6
20230324130048 30 350 0.9 0.0 0.00 0.00 0.00 50 1009.2
20230324124546 30 350 0.0 0.0 0.00 0.00 0.00 51 1009.3
20230324123048 30 350 0.0 0.0 0.00 0.00 0.00 52 1009.4
20230324121547 30 350 0.0 0.0 0.00 0.00 0.00 53 1009.8
20230324120053 30 350 0.0 0.0 0.00 0.00 0.00 56 1009.3
20230324114543 30 350 0.0 0.0 0.00 0.00 0.00 56 1009.6
20230324113046 29 350 0.0 0.0 0.00 0.00 0.00 57 1009.6
20230324111544 30 350 0.0 0.0 0.00 0.00 0.00 60 1009.7
20230324110052 31 350 0.0 0.0 0.00 0.00 0.00 57 1008.0
20230324104540 32 350 0.0 0.0 0.00 0.00 0.00 55 1007.8
20230324103039 33 348 0.9 0.0 0.00 0.00 0.00 52 1007.3
20230324101537 34 355 1.7 0.0 0.00 0.00 0.00 51 1007.3
20230324100037 34 326 2.6 0.0 0.00 0.00 0.00 52 1006.9
20230324094539 33 295 1.7 0.0 0.00 0.00 0.00 53 1007.0
20230324093032 33 266 1.7 0.0 0.00 0.00 0.00 56 1007.6
20230324091536 32 318 0.9 0.0 0.00 0.00 0.00 58 1007.6
20230324090036 31 298 1.7 0.0 0.00 0.00 0.00 61 1007.6
20230324084526 31 73 1.7 0.0 0.00 0.00 0.00 71 1008.2
20230324083023 30 18 0.9 0.0 0.00 0.00 0.00 72 1008.5
20230324081521 30 21 1.7 0.0 0.00 0.00 0.00 83 1008.5
20230324080018 30 21 0.0 0.0 0.00 0.00 0.00 82 1008.5